Flag for United Kingdom Weather past 2 weeks in Reading, England, United Kingdom

Now
54 °F

Passing clouds.


Feels Like: 52 °F
Forecast: N/A
Wind: 7 mph from South

Location: Benson

Current Time: Oct 26, 2014 at 7:31:56 AM

Latest Report: Oct 26, 2014 at 5:50 AM


Visibility: N/A

Pressure: 30.12 "Hg

Humidity: 77%

Dew point: 46 °F

Location of ReadingLocation

Historic Weather in Reading — Graph

°F

Reading temperature yesterday

Maximum temperature yesterday: 59 °F (at 3:50 PM)
Minimum temperature yesterday: 41 °F (at 4:50 AM)
Average temperature yesterday: 52 °F

Past Weeks' High & Low Weather Summary

 TemperatureHumidityPressure
High66 °F (Oct 17, 12:50 PM)100% (Oct 11, 9:50 PM)30.30 "Hg (Oct 11, 9:50 PM)
Low37 °F (Oct 12, 1:50 AM)47% (Oct 21, 1:50 PM)29.47 "Hg (Oct 13, 10:50 AM)
Average55 °F85%29.84 "Hg
* Reported Oct 11 6:50 AM — Oct 26 5:50 AM, Reading, Weather by CustomWeather, © 2014

Note: Actual official high and low records may vary slightly from our data, if they occured in-between our weather recording intervals... More about our weather records

Advertising

Reading weather history for previous 24 hours

 ConditionsComfort  
Time TempWeatherWind HumidityBarometerVisibility
5:50 AM
Oct 26
54 °FPassing clouds.7 mph77%30.12 "HgN/A
4:50 AM54 °FOvercast.8 mph72%30.12 "HgN/A
3:50 AM54 °FPassing clouds.13 mph72%30.12 "HgN/A
2:50 AM54 °FPassing clouds.10 mph72%30.12 "HgN/A
1:50 AM52 °FClear.9 mph77%30.12 "HgN/A
1:50 AM54 °FPassing clouds.10 mph77%30.12 "HgN/A
12:50 AM54 °FPassing clouds.9 mph77%30.12 "HgN/A
11:50 PM
Oct 25
55 °FOvercast.9 mph72%30.12 "HgN/A
10:50 PM55 °FPassing clouds.13 mph72%30.12 "HgN/A
9:50 PM54 °FPassing clouds.8 mph77%30.12 "HgN/A
8:50 PM55 °FOvercast.10 mph72%30.09 "HgN/A
7:50 PM55 °FPassing clouds.12 mph72%30.09 "HgN/A
6:50 PM55 °FOvercast.14 mph72%30.09 "HgN/A
5:50 PM55 °FPartly sunny.8 mph72%30.09 "HgN/A
4:50 PM57 °FPartly sunny.10 mph67%30.07 "HgN/A
3:50 PM59 °FPassing clouds.13 mph63%30.07 "HgN/A
2:50 PM57 °FScattered clouds.10 mph67%30.07 "HgN/A
1:53 PM57 °FPartly sunny.12 mph67%30.07 "HgN/A
12:54 PM57 °FPartly sunny.14 mph63%30.07 "HgN/A
11:50 AM55 °FScattered clouds.12 mph72%30.07 "HgN/A
10:53 AM54 °FPartly sunny.9 mph72%30.07 "HgN/A
9:50 AM54 °FScattered clouds.5 mph82%30.07 "HgN/A
8:50 AM50 °FPartly sunny.3 mph88%30.07 "HgN/A
7:53 AM50 °FPassing clouds.6 mph88%30.04 "HgN/A
Weather by CustomWeather, © 2014

See weather overviewHow to use our weather pages